Content
SEND FEEDBACK

Daily
Averages
Monthly
Summary
Canada

MONTREAL, QUEBEC


Home > North America > Canada > Quebec
Elevation: 118 feet     Latitude: 45 28N     Longitude: 073 45W

WEATHER
 
SELECT A DAY
Number of Records: 200,695;   Date Range: 1/1/95 - 9/29/14
 
SHARE

PRINT THIS DATA

[ ← Previous Day ]
WEATHER ALMANAC - FEBRUARY 24, 2013
[ Next Day → ]
[ °C ]   °F
Weather ElementAverageHighLow
Temperature33 °F33.8 °F (12:24 am)32 °F (1:00 am)
Dewpoint31.1 °F32 °F (12:24 am)28.4 °F (10:00 pm)
Humidity93 %100 % (1:00 am)81 % (10:00 pm)
Barometer29.86 in29.96 in (11:00 pm)29.83 in (4:00 am)
Wind Speed3.7 mph6.9 mph (8:30 am)
Weather ElementAverage
Visibility7.6 mi
Wind DirectionWSW (242.1 °)

Weather ElementTotal
Precipitation---
Heating Degree Days32.1 (Base 65)
Averaged from 35 records on February 24, 2013
WEATHER CONDITIONS BREAKOUT
WIND DIRECTION BREAKOUT
WEATHER BY HOUR - FEBRUARY 24, 2013
[ °C ]   °F
Local TimeTemperatureDewpointHumidityBarometerVisibilityWind DirectionWind SpeedGust SpeedPrecipitationEventsConditions
12:24 AM33.8 °F32.0 °F93 %29.87 in12.0 miSE (140°)3.5 mphSnowLight Snow
1:00 AM33.0 °F32.0 °F94 %29.86 in12.0 miCalmSnowLight Snow
1:00 AM32.0 °F32.0 °F100 %29.86 in12.0 miSE (140°)2.3 mphSnowLight Snow
1:30 AM33.8 °F32.0 °F93 %29.86 in10.0 miSouth (170°)4.6 mphSnowLight Snow
2:00 AM32.0 °F32.0 °F100 %29.85 in8.0 miCalmSnowLight Snow
3:00 AM32.0 °F32.0 °F100 %29.84 in10.0 miSouth (170°)2.3 mphSnowLight Snow
4:00 AM32.0 °F32.0 °F100 %29.83 in60.0 miSSE (150°)3.5 mphSnowLight Snow
5:00 AM32.0 °F32.0 °F100 %29.83 in5.0 miCalmSnowLight Snow
6:00 AM32.0 °F32.0 °F100 %29.84 in4.0 miSW (230°)3.5 mphSnowLight Snow
7:00 AM32.0 °F32.0 °F100 %29.85 in1.0 miSW (220°)3.5 mphSnowLight Snow
7:00 AM32.0 °F32.0 °F100 %29.84 in1.2 miSW (230°)3.5 mphSnowLight Snow
7:23 AM32.0 °F32.0 °F100 %29.84 in1.5 miWSW (240°)2.3 mphSnowLight Snow
7:42 AM32.0 °F32.0 °F100 %29.84 in1.2 miWSW (240°)3.5 mphSnowLight Snow
8:00 AM32.0 °F32.0 °F100 %29.84 in1.0 miSW (230°)4.6 mphSnowLight Snow
8:11 AM32.0 °F32.0 °F100 %29.84 in1.5 miWSW (240°)5.8 mphSnowLight Snow
8:30 AM32.0 °F32.0 °F100 %29.84 in2.2 miWest (260°)6.9 mphSnowLight Snow
9:00 AM32.0 °F32.0 °F100 %29.84 in3.0 miWest (260°)4.6 mphSnowLight Snow
10:00 AM32.0 °F30.2 °F93 %29.84 in3.0 miNW (310°)3.5 mphSnowLight Snow
11:00 AM33.8 °F30.2 °F87 %29.83 in3.0 miWNW (300°)4.6 mphSnowLight Snow
12:00 PM33.8 °F30.2 °F87 %29.83 in4.0 miNNW (330°)3.5 mphSnowLight Snow
12:07 PM33.8 °F30.2 °F87 %29.83 in4.0 miNW (320°)3.5 mphSnowLight Snow
12:25 PM33.8 °F30.2 °F87 %29.83 in5.0 miNW (320°)4.6 mphSnowLight Snow
1:00 PM33.0 °F31.0 °F87 %29.83 in6.0 miNNW (330°)3.5 mphSnowLight Snow
1:00 PM33.8 °F30.2 °F87 %29.83 in6.0 miNW (320°)3.5 mphSnowLight Snow
2:00 PM33.8 °F30.2 °F87 %29.83 in6.0 miNNW (340°)4.6 mphSnowLight Snow
3:00 PM33.8 °F30.2 °F87 %29.84 in4.0 miNW (320°)3.5 mphSnowLight Snow
4:00 PM33.8 °F32.0 °F93 %29.85 in5.0 miNW (320°)3.5 mphSnowLight Snow
5:00 PM33.8 °F32.0 °F93 %29.86 in7.0 miSW (230°)4.6 mphSnowLight Snow
6:00 PM33.8 °F30.2 °F87 %29.88 in7.0 miWSW (250°)3.5 mphSnowLight Snow
7:00 PM33.0 °F30.0 °F84 %29.90 in7.0 miWest (270°)3.5 mphSnowLight Snow
7:00 PM33.8 °F30.2 °F87 %29.90 in8.0 miWest (280°)3.5 mphSnowLight Snow
8:00 PM33.8 °F30.2 °F87 %29.92 in10.0 miWest (270°)4.6 mphSnowLight Snow
9:00 PM33.8 °F30.2 °F87 %29.94 in12.0 miWest (270°)5.8 mphSnowLight Snow
10:00 PM33.8 °F28.4 °F81 %29.94 in12.0 miWest (270°)6.9 mphSnowLight Snow
11:00 PM33.8 °F30.2 °F87 %29.96 in10.0 miWest (260°)5.8 mphSnowLight Snow
Hourly data recorded from CYUL, located miles away from Montreal, Quebec







STORIES FROM OUR PARTNERS